Location: Copeville
(33.0796°N, 96.4155°W)
Time: 11:13:34
(UTC+00:00)

Max Valier Satellite - Pass Details

Date: 31 March 2023
Orbit: 443 x 457 km, 97.2° (Epoch: 10 June)

Event Time Altitude Azimuth Distance (km) Brightness Sun altitude
Exits shadow 02:43:01 11° 220° (SW) 1,489 ? -24.8°
Maximum altitude 02:45:13 19° 264° (W) 1,127 ? -25.3°
Drops below altitude 10° 02:47:41 10° 312° (NW) 1,568 ? -25.7°
Sets 02:50:09 0° 331° (NNW) 2,447 ? -26.2°
